575  
ASUS41 KBOX 240110  
RWRBOX  
 
REGIONAL WEATHER ROUNDUP  
NATIONAL WEATHER SERVICE TAUNTON MA  
800 PM EST THU NOV 23 2017  
 
NOTE: "FAIR" INDICATES FEW OR NO CLOUDS BELOW 12,000 FEET WITH NO  
SIGNIFICANT WEATHER AND/OR S TO VISIBILITY
.  
 
MAZALL-240200-  
EASTERN MASSACHUSETTS  
 
CITY SKY/WX TMP DP RH WIND PRES REMARKS
 
BOSTON MOCLDY 38 16 40 VRB3 29.98S  
BEVERLY PTCLDY 30 22 72 CALM 29.97S  
LAWRENCE PTCLDY 35 19 52 N3 29.99S  
BEDFORD MOCLDY 29 22 75 CALM 29.97R  
BLUE HILL N/A 33 17 51 W9 29.95R WCI 25  
NORWOOD CLOUDY 28 23 81 CALM 29.98S  
MARSHFIELD PTCLDY 30 25 80 W5 29.97S WCI 25  
PLYMOUTH CLOUDY 29 24 82 CALM 29.98S  
TAUNTON PTCLDY 27 25 92 CALM 29.98S  
NEW BEDFORD PTCLDY 28 25 88 CALM 29.98R  

 
 
MAZALL-240200-  
CAPE COD AND THE ISLANDS  
 
CITY SKY/WX TMP DP RH WIND PRES REMARKS
 
FALMOUTH PTCLDY 27 23 86 CALM 29.99R  
HYANNIS CLEAR 28 23 81 CALM 29.97R  
CHATHAM CLEAR 30 24 78 CALM 29.98S  
PROVINCETOWN CLEAR 38 22 52 W7 29.98S  
NANTUCKET CLEAR 35 29 78 NW6 29.98S WCI 30  
MARTHAS VNYRD CLEAR 24 22 91 CALM 29.98R  

 
 
MAZALL-240200-  
CENTRAL AND WESTERN MASSACHUSETTS  
 
CITY SKY/WX TMP DP RH WIND PRES REMARKS
 
WORCESTER CLOUDY 30 16 56 W5 29.95R WCI 25  
FITCHBURG PTCLDY 30 23 75 NW3 29.98R  
ORANGE PTCLDY 28 19 69 CALM 29.98R  
SPRINGFIELD CLEAR 34 16 48 W3 29.99R  
WESTFIELD CLEAR 28 20 71 CALM 30.00R  
NORTH ADAMS CLOUDY 27 21 78 CALM 29.99R  
PITTSFIELD MOCLDY 28 19 69 CALM 29.96R  

 
 
RIZALL-240200-  
RHODE ISLAND  
 
CITY SKY/WX TMP DP RH WIND PRES REMARKS
 
PROVIDENCE CLEAR 34 23 64 W6 29.99S WCI 29  
NEWPORT CLEAR 37 24 59 W5 29.98S  
BLOCK ISLAND CLEAR 39 24 55 W3 29.99S  
SMITHFIELD PTCLDY 29 20 69 W5 29.97S WCI 24  
WESTERLY PTCLDY 31 26 82 CALM 30.00S  

 
 
CTZALL-240200-  
CONNECTICUT  
 
CITY SKY/WX TMP DP RH WIND PRES REMARKS
 
BRADLEY INTL PTCLDY 31 19 61 CALM 30.01R  
HARTFORD PTCLDY 32 24 72 CALM 30.02R  
BRIDGEPORT CLOUDY 37 23 56 CALM 30.01S  
DANBURY PTCLDY 30 21 69 SW3 30.01R  
GROTON PTCLDY 32 24 72 N3 30.00R  
NEW HAVEN PTCLDY 40 21 46 NW3 30.00S  
CHESTER FAIR 36 16 44 CALM 29.99S  
MERIDEN PTCLDY 30 21 69 CALM 30.01R  
WILLIMANTIC CLEAR 30 24 78 CALM 30.01R  
OXFORD MOCLDY 32 19 58 W3 29.99R  

 
 
MEZ002-015-021-024-NHZ003-005-008-011-012-014-VTZ005-008-240200-  
NORTHERN NEW ENGLAND  
 
CITY SKY/WX TMP DP RH WIND PRES REMARKS
 
PORTLAND ME CLOUDY 30 18 60 W3 29.96S  
BANGOR ME CLOUDY 29 18 63 CALM 29.94S  
CONCORD NH PTCLDY 26 17 68 CALM 29.97S  
MANCHESTER NH CLOUDY 33 17 51 NW5 29.96S WCI 29  
NASHUA NH PTCLDY 29 23 78 NW5 29.98S WCI 24  
PORTSMOUTH NH MOCLDY 32 15 50 W5 29.96S WCI 27  
JAFFREY NH PTCLDY 28 22 78 CALM 29.94S  
KEENE NH CLEAR 25 18 74 CALM 29.98R  
BURLINGTON VT CLOUDY 32 18 56 S6 29.94F WCI 26  
MT. WASHINGTON FOG 9 9 100 W39 N/A VSB 1/8 WCI -17  

 
 
NYZ052-076-240200-  
EASTERN NEW YORK  
 
CITY SKY/WX TMP DP RH WIND PRES REMARKS
 
ALBANY CLOUDY 32 22 66 S5 30.00S WCI 27  
NEW YORK CITY PTCLDY 42 20 41 W8 30.01F  

 
 
ANZALL-240200-  
MARINE OBSERVATIONS  
 
STATION/POSITION TIME TEMP WIND PRES VSBY WAVE
 
AIR SEA DIR/SP/G HT/PER  
(UTC) (F) (DEG/KT/KT) (MB) (MI) (FT/S)  
BOSTON BUOY 2350 43 50 260/ 8/ 12 1013.9 3/10  
BUZZARDS BAY 0000 41 300/ 12/ 14 1015.6S  
NANTUCKET SOUND 2350 40 48 280/ 8/ 10 1015.1 1/11  
MASS BAY-STELLWA 0004 41 49 320/ 6/ 10 1014.1F 3/11  
ISLE OF SHOALS 0000 36 290/ 10/ 12 1014.6F  
S OF BLOCK IS NOT AVBL  

 
   
.....................KEY......................
 
 
SKY/WX - SKY CONDITION/PRESENT WEATHER  
TMP - TEMPERATURE IN FAHRENHEIT  
DWPT - DEWPOINT IN FAHRENHEIT  
RH - RELATIVE HUMIDITY IN PERCENT  
WIND - DIRECTION AND SPEED IN MPH  
PRES - MEAN SEA LEVEL PRESSURE IN INCHES OF HG  
WCI - WIND CHILL INDEX  
VSB - VISIBILITY IN MILES  
HX - HEAT INDEX  
TC - TEMPERATURE IN CELSIUS  
VRB - VARIABLE WIND DIRECTION  
N/A - NOT AVAILABLE  
 
 
CLICK HERE TO GO TO PREVIOUS BULLETINS.

The Nexlab MA Page
The Nexlab RI Page
The Nexlab NH Page
The Nexlab CT Page Main Text Page